Regional Weather Roundup
Issued by NWS

Home | Current Version | Previous Version | Text Only | Print | Product List | Glossary On
Versions: 1 2 3 4 5 6 7 8 9 10 11 12 13 14 15 16 17 18 19 20 21 22 23 24 25 26 27 28 29 30 31 32 33 34 35 36 37 38 39 40 41 42 43 44 45 46 47 48 49 50
000
ASUS43 KMKX 310621
RWRWI

WISCONSIN REGIONAL WEATHER ROUNDUP
NATIONAL WEATHER SERVICE MILWAUKEE/SULLIVAN WI
100 AM CDT SAT JUL 31 2021

NOTE: "FAIR" INDICATES FEW OR NO CLOUDS BELOW 12,000 FEET WITH NO
SIGNIFICANT WEATHER AND/OR OBSTRUCTIONS TO VISIBILITY.

WIZ001-002-006>008-014>016-023>028-310700-
NORTHWEST WISCONSIN

CITY           SKY/WX    TMP DP  RH WIND       PRES   REMARKS
SUPERIOR ARPT  CLOUDY    63  58  85 S7        29.99F HAZE
6HR MIN TEMP:  63; 6HR MAX TEMP:  78;

ASHLAND        PTCLDY    67  57  70 SW9       29.99F
6HR MIN TEMP:  67; 6HR MAX TEMP:  74;

HAYWARD        PTCLDY    60  55  83 S5        30.05S
6HR MIN TEMP:  57; 6HR MAX TEMP:  76;

SIREN          NOT AVBL
CUMBERLAND     CLEAR     59  55  88 SW7       30.08R
RICE LAKE      CLEAR     62  60  92 SW3       30.08S FOG
6HR MIN TEMP:  62; 6HR MAX TEMP:  74;

CHETEK         CLEAR     63  62  94 W3        30.07S
6HR MIN TEMP:  63; 6HR MAX TEMP:  74;

LADYSMITH        N/A     61  61 100 CALM      30.08F FOG
6HR MIN TEMP:  61; 6HR MAX TEMP:  74;

EAU CLAIRE     MOCLDY    65  62  90 SW7       30.07S
6HR MIN TEMP:  65; 6HR MAX TEMP:  74;

MENOMONIE        N/A     62  59  90 SW5       30.08S
6HR MIN TEMP:  62; 6HR MAX TEMP:  72;

NEW RICHMOND   CLEAR     62  59  88 SW5       30.09S FOG
6HR MIN TEMP:  62; 6HR MAX TEMP:  75;

OSCEOLA        CLEAR     65  61  85 SW7       30.11R FOG
6HR MIN TEMP:  65; 6HR MAX TEMP:  77;

$$

WIZ003>005-009-010-017-018-310700-
NORTH CENTRAL WISCONSIN

CITY           SKY/WX    TMP DP  RH WIND       PRES   REMARKS
MANITOWISH WTR PTCLDY    61  61 100 SW5       30.04F
6HR MIN TEMP:  61; 6HR MAX TEMP:  73;

ARBOR VITAE    CLEAR     62  48  61 SW3       30.05F
6HR MIN TEMP:  62; 6HR MAX TEMP:  74;

WOODRUFF       CLEAR     62  48  61 SW3       30.05F
6HR MIN TEMP:  62; 6HR MAX TEMP:  74;

RHINELANDER    CLEAR     63  59  87 SW8       30.07F
6HR MIN TEMP:  61; 6HR MAX TEMP:  73;

EAGLE RIVER    CLEAR     59  59  99 SW6       30.05F
6HR MIN TEMP:  59; 6HR MAX TEMP:  70;

LAND O LAKES     N/A     62  58  89 CALM      30.05F
6HR MIN TEMP:  62; 6HR MAX TEMP:  73;

PHILLIPS       PTCLDY    63  63 100 SW5       30.05F
6HR MIN TEMP:  61; 6HR MAX TEMP:  71;

TOMAHAWK       CLEAR     58  57  96 CALM      30.07S
6HR MIN TEMP:  59; 6HR MAX TEMP:  70;

MEDFORD        CLEAR     59  59 100 SW3       30.08S
6HR MIN TEMP:  60; 6HR MAX TEMP:  69;

MERRILL        CLEAR     60  60 100 SW3       30.06F
6HR MIN TEMP:  60; 6HR MAX TEMP:  72;

$$

WIZ029-030-035-036-043>047-310700-
CENTRAL WISCONSIN

CITY           SKY/WX    TMP DP  RH WIND       PRES   REMARKS
WAUSAU         CLEAR     65  59  81 SW6       30.06F
6HR MIN TEMP:  65; 6HR MAX TEMP:  74;

MOSINEE        CLEAR     59  57  94 SW6       30.08F
MARSHFIELD     PTCLDY    61  59  93 SW5       30.08F FOG
6HR MIN TEMP:  60; 6HR MAX TEMP:  71;

STEVENS POINT  CLEAR     58  57  98 CALM      30.09S
6HR MIN TEMP:  57; 6HR MAX TEMP:  70;

WAUPACA        CLEAR     59  57  93 CALM      30.08S
6HR MIN TEMP:  59; 6HR MAX TEMP:  72;

WAUTOMA        CLEAR     57  56  96 CALM      30.09F
6HR MIN TEMP:  57; 6HR MAX TEMP:  72;

WISC RAPIDS    CLEAR     62  60  93 SW6       30.08F
6HR MIN TEMP:  58; 6HR MAX TEMP:  71;

CAMP DOUGLAS   CLEAR     58  57  97 SE3       30.08F
6HR MIN TEMP:  56; 6HR MAX TEMP:  71;

$$

WIZ011>013-019>022-031-037>040-048>050-310700-
NORTHEAST WISCONSIN

CITY           SKY/WX    TMP DP  RH WIND       PRES   REMARKS
ANTIGO         CLEAR     58  58  98 SW3       30.08S
6HR MIN TEMP:  58; 6HR MAX TEMP:  68;

SHAWANO        PTCLDY    64  60  87 SW3       30.05F
6HR MIN TEMP:  63; 6HR MAX TEMP:  73;

OCONTO         PTCLDY    58  56  94 SW5       30.04F
6HR MIN TEMP:  58; 6HR MAX TEMP:  68;

STURGEON BAY   PTCLDY    59  53  80 SW8         N/A
6HR MIN TEMP:  59; 6HR MAX TEMP:  65;

GREEN BAY      CLEAR     59  55  87 SW3       30.06F
6HR MIN TEMP:  58; 6HR MAX TEMP:  70;

MANITOWOC      CLEAR     59  53  80 SW3       30.08F
6HR MIN TEMP:  59; 6HR MAX TEMP:  65;

APPLETON       CLEAR     61  55  82 SW8       30.06F
CLINTONVILLE   PTCLDY    60  56  88 CALM      30.06F
6HR MIN TEMP:  60; 6HR MAX TEMP:  72;

OSHKOSH        CLEAR     60  57  89 S7        30.07F
6HR MIN TEMP:  59; 6HR MAX TEMP:  70;

$$

WIZ032>034-041-042-053>061-310700-
SOUTHWEST WISCONSIN

CITY           SKY/WX    TMP DP  RH WIND       PRES   REMARKS
LA CROSSE      MOCLDY    66  62  87 S6        30.09S
6HR MIN TEMP:  66; 6HR MAX TEMP:  74;

SPARTA           N/A     51  51  99 CALM      30.11S
6HR MIN TEMP:  51; 6HR MAX TEMP:  69;

VIROQUA        MOCLDY    60  60 100 SW3       30.11F
6HR MIN TEMP:  59; 6HR MAX TEMP:  68;

BOSCOBEL       CLEAR     60  59  96 CALM      30.11F FOG
6HR MIN TEMP:  60; 6HR MAX TEMP:  69;

PRAIRIE DU CHI PTCLDY    61  58  90 CALM      30.10F
6HR MIN TEMP:  61; 6HR MAX TEMP:  66;

PLATTEVILLE    CLOUDY    62  62 100 CALM      30.12S
6HR MIN TEMP:  62; 6HR MAX TEMP:  65;

$$

WIZ056-057-062-063-064-067-068-310700-
SOUTH CENTRAL WISCONSIN

CITY           SKY/WX    TMP DP  RH WIND       PRES   REMARKS
REEDSBURG      CLEAR     59  59 100 CALM      30.10F
6HR MIN TEMP:  59; 6HR MAX TEMP:  70;

BARABOO/DELLS  CLEAR     57  57  99 CALM      30.10F
6HR MIN TEMP:  56; 6HR MAX TEMP:  69;

LONE ROCK      FOG       56  55  97 CALM      30.10F VSB 1/2
6HR MIN TEMP:  56; 6HR MAX TEMP:  70;

MINERAL POINT  PTCLDY    59  57  94 CALM      30.12S
MADISON        CLEAR     59  57  93 CALM      30.09F FOG
6HR MIN TEMP:  59; 6HR MAX TEMP:  71;

MIDDLETON        N/A     56  55  96 CALM      30.10F
6HR MIN TEMP:  56; 6HR MAX TEMP:  72;

WATERTOWN      CLEAR     56  56 100 CALM      30.11F
6HR MIN TEMP:  56; 6HR MAX TEMP:  70;

MONROE         CLEAR     62  58  86 NW9       30.11S
6HR MIN TEMP:  61; 6HR MAX TEMP:  67;

JANESVILLE     CLEAR     61  61 100 CALM      30.11F
$$

WIZ051-052-058>065-066-070>072-310700-
SOUTHEAST WISCONSIN

CITY           SKY/WX    TMP DP  RH WIND       PRES   REMARKS
MILWAUKEE      CLEAR     63  53  70 SW5       30.10F
6HR MIN TEMP:  61; 6HR MAX TEMP:  67;

WAUKESHA       CLEAR     55  52  88 CALM      30.12F
MILWAUKEE/TIMM CLEAR     57  50  77 CALM      30.11F
RACINE         CLEAR     58  54  86 CALM      30.13S
6HR MIN TEMP:  58; 6HR MAX TEMP:  66;

KENOSHA        CLEAR     57  53  86 W3        30.12S
6HR MIN TEMP:  57; 6HR MAX TEMP:  67;

FOND DU LAC    CLEAR     61  53  75 SW5       30.09F
6HR MIN TEMP:  60; 6HR MAX TEMP:  74;

SHEBOYGAN      CLEAR     56  52  86 SW6       30.08F
6HR MIN TEMP:  55; 6HR MAX TEMP:  66;

WEST BEND      CLEAR     52  52 100 CALM      30.10F
JUNEAU         CLEAR     57  55  93 CALM      30.11F
6HR MIN TEMP:  57; 6HR MAX TEMP:  69;

$$

LSZ147-162-310700-
LAKE SUPERIOR

STATION/POSITION TIME  TEMP    WIND        PRES    WAVE
                       AIR SEA DIR/SP/G            HT/PER
                 (UTC) (F)     (DEG/KT/KT) (MB)    (FT/S)
W MID LAKE BUOY  0600   68     230/ 16/ 19 1013.3
DEVILS ISLAND    0600   71                 1013.7F
PORT WING        0540   69     190/  6/  8 1015.2F
SAXON HARBOR     0540   68     190/  5/ 10 1014.9S
$$

LMZ867-665-643>646-310700-
LAKE MICHIGAN

STATION/POSITION TIME  TEMP    WIND        PRES    WAVE
                       AIR SEA DIR/SP


USA.gov is the U.S. government's official web portal to all federal, state and local government web resources and services.